Content
SEND FEEDBACK

Daily
Averages
Monthly
Summary
United States of America

SOUTH LAKE TAHOE, CALIFORNIA


Home > North America > United States > California
Elevation: 6263 feet     Latitude: 38 53N     Longitude: 119 59W

WEATHER
 
SELECT A DAY
Number of Records: 174,306;   Date Range: 1/1/95 - 7/20/14
 
SHARE

PRINT THIS DATA

[ ← Previous Day ]
WEATHER ALMANAC - FEBRUARY 3, 2013
[ Next Day → ]
[ °C ]   °F
Weather ElementAverageHighLow
Temperature33.3 °F50 °F (2:53 pm)19 °F (6:53 am)
Dewpoint19.4 °F27 °F (10:53 am)12.9 °F (6:53 am)
Humidity60.3 %81 % (5:53 am)29 % (2:53 pm)
Barometer30.24 in30.30 in (6:53 am)30.16 in (1:53 pm)
Wind Speed2.5 mph8.1 mph (12:53 pm)
Weather ElementAverage
Visibility10 mi
Wind DirectionNNE (30 °)

Weather ElementTotal
Precipitation---
Heating Degree Days30.5 (Base 65)
Averaged from 22 records on February 3, 2013
WEATHER CONDITIONS BREAKOUT
WIND DIRECTION BREAKOUT
WEATHER BY HOUR - FEBRUARY 3, 2013
[ °C ]   °F
Local TimeTemperatureDewpointHumidityBarometerVisibilityWind DirectionWind SpeedGust SpeedPrecipitationEventsConditions
1:53 AM23.0 °F16.0 °F74 %30.27 in10.0 miCalmClear
2:53 AM23.0 °F17.1 °F78 %30.27 in10.0 miCalmClear
4:53 AM21.0 °F15.1 °F78 %30.26 in10.0 miCalmClear
5:53 AM19.9 °F15.1 °F81 %30.28 in10.0 miCalmClear
6:53 AM19.0 °F12.9 °F77 %30.30 in10.0 miCalmPartly Cloudy
7:53 AM19.9 °F14.0 °F78 %30.30 in10.0 miCalmClear
8:53 AM27.0 °F17.1 °F66 %30.27 in10.0 miCalmClear
9:53 AM37.0 °F26.1 °F65 %30.25 in10.0 miNE (40°)5.8 mphClear
10:53 AM42.1 °F27.0 °F55 %30.24 in10.0 miNE (40°)6.9 mphClear
11:53 AM45.0 °F25.0 °F46 %30.21 in10.0 miNE (50°)4.6 mphClear
12:53 PM46.9 °F21.0 °F36 %30.18 in10.0 miNNE (30°)8.1 mphClear
1:53 PM48.9 °F19.0 °F31 %30.16 in10.0 miNNE (20°)4.6 mphClear
2:53 PM50.0 °F19.0 °F29 %30.17 in10.0 miNNE (20°)6.9 mphClear
3:53 PM48.0 °F21.9 °F36 %30.18 in10.0 miNNE (20°)3.5 mphClear
4:53 PM46.0 °F18.0 °F33 %30.19 in10.0 miNE (50°)6.9 mphClear
5:53 PM39.9 °F19.9 °F45 %30.22 in10.0 miCalmClear
6:53 PM32.0 °F21.9 °F66 %30.27 in10.0 miCalmClear
7:53 PM32.0 °F21.0 °F64 %30.28 in10.0 miCalmClear
8:53 PM28.9 °F21.0 °F72 %30.27 in10.0 miCalmClear
9:53 PM30.0 °F21.0 °F69 %30.25 in10.0 miSSW (210°)3.5 mphClear
10:53 PM27.0 °F19.0 °F72 %30.23 in10.0 miCalmClear
11:53 PM26.1 °F19.0 °F75 %30.22 in10.0 miSouth (180°)4.6 mphClear
Hourly data recorded from KTVL, located miles away from South Lake Tahoe, California







STORIES FROM OUR PARTNERS